Location: Bauerbach
(50.4985°N, 10.3912°E)
Time: 09:57:19
(UTC+00:00)

Sich 1 - Pass Details

Date: 13 January 2026
Orbit: 572 x 598 km, 82.5° (Epoch: 18 February)

Event Time Altitude Azimuth Distance (km) Brightness Sun altitude
Rises 04:20:11 0° 168° (SSE) 2,806 6.6 -26.9°
Reaches altitude 10° 04:22:29 10° 161° (SSE) 1,906 5.8 -26.6°
Maximum altitude 04:26:23 39° 92° (E) 890 4.3 -25.9°
Drops below altitude 10° 04:30:18 10° 24° (NNE) 1,906 5.8 -25.3°
Sets 04:32:35 0° 17° (NNE) 2,806 6.6 -25.0°
